Simultaneous Nadir Overpasses (SNOs) Predictions

Prediction of SNOs between AQUA and METOP-A Satellite Orbit:

Table of predicted SNOs for the next 14.0 days since TLE Epoch: 11/10/2017
Index Date (AQUA) Time (AQUA) Lat,Lon (AQUA) SZA (AQUA ) Date (METOP-A) Time (METOP-A) Lat,Lon (METOP-A) SZA (METOP-A ) Distance(km) Time Diff (sec)
1 11/13/2017 15:06:02 -74.01, 127.26 87.96 11/13/2017 15:05:25 -74.02, 127.27 87.94 1.37 37
2 11/13/2017 15:55:30 74.06, -65.22 92.11 11/13/2017 15:56:04 74.06, -65.31 92.11 2.71 34
3 11/16/2017 10:40:19 -74.03,-166.36 87.21 11/16/2017 10:39:44 -74.01,-166.35 87.24 3.07 35
4 11/16/2017 11:29:47 74.09, 1.14 92.86 11/16/2017 11:30:22 74.09, 1.18 92.86 1.23 35
5 11/19/2017 06:14:35 -74.02, -99.90 86.55 11/19/2017 06:14:02 -74.04, -99.86 86.53 2.38 33
6 11/19/2017 07:04:03 74.08, 67.59 93.53 11/19/2017 07:04:41 74.07, 67.54 93.51 2.56 38
7 11/22/2017 01:48:50 -74.02, -33.47 85.92 11/22/2017 01:48:20 -74.02, -33.49 85.91 0.80 30
8 11/22/2017 02:38:18 74.09, 134.02 94.16 11/22/2017 02:38:58 74.09, 134.02 94.17 0.53 40
9 11/24/2017 21:23:06 -74.04, 32.94 85.32 11/24/2017 21:22:38 -74.05, 32.99 85.30 2.27 28
10 11/24/2017 22:12:34 74.11,-159.58 94.76 11/24/2017 22:13:16 74.12,-159.51 94.77 2.50 42




NCC Satellite Simultaneous Nadir Overpasses (SNOs) Prediction Service
